FW2027 Weather Reports


Display with metric or nautical units.
time (UTC)temp
F
wind
direction
speed
MPH
gust
MPH
rain 1hr
in
rain 24hr
in
rain mn
in
humidity
%
barometer
mb
20260904110042 63 268 8.0 15.0 0.00 0.17 0.17 74 1011.5
20260904104542 63 254 6.0 14.0 0.00 0.17 0.17 75 1011.4
20260904103036 62 246 4.0 9.0 0.00 0.17 0.17 79 1011.5
20260904101533 62 277 3.0 8.0 0.00 0.17 0.17 82 1011.5
20260904100039 61 303 3.0 8.0 0.00 0.17 0.17 85 1011.5
20260904094530 60 305 2.0 7.0 0.00 0.17 0.17 88 1011.2
20260904093050 60 257 4.0 9.0 0.00 0.17 0.17 91 1011.0
20260904091526 60 240 2.0 7.0 0.00 0.17 0.17 93 1010.9
20260904090024 61 292 6.0 12.0 0.00 0.17 0.17 90 1010.8
20260904084523 61 205 2.0 4.0 0.00 0.17 0.17 92 1010.3
20260904083022 61 238 1.0 4.0 0.00 0.17 0.17 92 1010.3
20260904081521 60 283 3.0 11.0 0.00 0.17 0.17 92 1010.6
20260904080020 60 237 3.0 9.0 0.00 0.17 0.17 93 1010.0
20260904074519 60 303 4.0 9.0 0.01 0.17 0.17 94 1009.8
20260904073035 60 223 6.0 11.0 0.02 0.17 0.17 95 1009.5
20260904071513 61 275 3.0 8.0 0.02 0.17 0.17 97 1009.2
20260904070016 61 284 3.0 7.0 0.03 0.17 0.17 96 1009.1
20260904064517 61 263 4.0 9.0 0.02 0.16 0.16 97 1009.2
20260904063009 62 217 4.0 8.0 0.01 0.14 0.14 96 1008.7
20260904061510 62 261 3.0 9.0 0.02 0.14 0.14 96 1008.4
20260904060008 62 256 3.0 8.0 0.03 0.13 0.13 96 1008.6
20260904054509 62 281 5.0 11.0 0.05 0.13 0.13 96 1008.3
20260904053003 63 274 6.0 11.0 0.12 0.13 0.13 97 1008.0
20260904051500 63 262 4.0 12.0 0.11 0.13 0.13 96 1007.9
20260904050100 64 327 8.0 14.0 0.10 0.11 0.11 96 1007.7
20260904044555 65 264 7.0 18.0 0.08 0.09 0.09 96 1007.6
20260904043053 66 227 8.0 18.0 0.02 0.02 0.02 97 1006.7
20260904041601 67 211 6.0 14.0 0.01 0.02 0.02 96 1006.8
20260904040051 67 259 10.0 21.0 0.00 0.01 0.01 96 1006.9
20260904034550 67 215 9.0 16.0 0.00 0.01 0.01 95 1006.9
20260904033101 67 216 8.0 14.0 0.00 0.01 0.01 95 1006.9
20260904031548 67 225 9.0 16.0 0.00 0.01 0.01 94 1007.1
20260904030048 67 193 9.0 20.0 0.00 0.01 0.01 93 1007.3
20260904024547 67 209 12.0 18.0 0.00 0.01 0.01 93 1007.1
20260904023051 67 215 11.0 21.0 0.01 0.01 0.01 94 1007.1
20260904021543 67 209 10.0 20.0 0.01 0.01 0.01 95 1007.1
20260904020049 67 180 10.0 22.0 0.01 0.01 0.01 94 1007.4
20260904014606 67 224 9.0 20.0 0.01 0.01 0.01 95 1007.8
20260904013038 67 202 12.0 19.0 0.00 0.00 0.00 96 1007.9
20260904011536 66 202 10.0 20.0 0.00 0.00 0.00 96 1007.8
20260904010033 66 187 10.0 16.0 0.00 0.00 0.00 96 1008.1
20260904004531 66 205 9.0 17.0 0.00 0.00 0.00 95 1008.3
20260904003029 66 198 9.0 20.0 0.00 0.00 0.00 94 1008.4
20260904001526 66 187 11.0 22.0 0.00 0.00 0.00 93 1008.7
20260904000024 66 217 11.0 20.0 0.00 0.00 0.00 93 1008.8
20260903234521 66 256 12.0 22.0 0.00 0.00 0.00 92 1009.0
20260903233018 65 211 9.0 16.0 0.00 0.00 0.00 92 1009.2
20260903231516 65 215 9.0 19.0 0.00 0.00 0.00 93 1009.4
20260903230025 66 189 9.0 21.0 0.00 0.00 0.00 93 1009.8
20260903224510 65 206 8.0 14.0 0.00 0.00 0.00 93 1010.2
20260903223008 65 175 7.0 13.0 0.00 0.00 0.00 92 1010.6
20260903221506 65 222 6.0 15.0 0.00 0.00 0.00 90 1010.8
20260903220003 66 221 7.0 14.0 0.00 0.00 0.00 88 1011.0
20260903214506 65 178 2.0 7.0 0.00 0.00 0.00 87 1011.4
20260903213001 65 159 4.0 8.0 0.00 0.00 0.00 86 1011.5
20260903211559 65 174 2.0 7.0 0.00 0.00 0.00 85 1012.0
20260903210100 65 165 3.0 9.0 0.00 0.00 0.00 84 1012.3
20260903204558 65 219 3.0 9.0 0.00 0.00 0.00 85 1012.4
20260903203055 64 231 5.0 11.0 0.00 0.00 0.00 85 1012.6
20260903201555 64 210 3.0 10.0 0.00 0.00 0.00 85 1012.6
20260903200055 65 219 4.0 10.0 0.00 0.00 0.00 84 1012.4
20260903194553 65 192 3.0 10.0 0.00 0.00 0.00 84 1012.7
20260903193052 66 261 3.0 11.0 0.00 0.00 0.00 83 1013.0
20260903191551 66 236 5.0 11.0 0.00 0.00 0.00 84 1013.0
20260903190050 67 222 6.0 14.0 0.00 0.00 0.00 83 1013.3
20260903184550 68 286 8.0 16.0 0.00 0.00 0.00 83 1013.2
20260903183049 68 255 7.0 14.0 0.00 0.00 0.00 82 1012.9
20260903181557 69 281 8.0 15.0 0.00 0.00 0.00 81 1013.4
20260903180058 69 260 6.0 13.0 0.00 0.00 0.00 80 1013.3
20260903174547 70 211 7.0 18.0 0.00 0.00 0.00 79 1013.1
20260903173056 70 224 6.0 15.0 0.00 0.00 0.00 78 1013.0
20260903171546 71 254 10.0 18.0 0.00 0.00 0.00 75 1012.9
20260903170131 71 186 7.0 13.0 0.00 0.00 0.00 76 1013.4
20260903164550 70 267 5.0 13.0 0.00 0.00 0.00 75 1013.6
20260903163044 71 257 8.0 19.0 0.00 0.00 0.00 73 1013.6
20260903161553 72 219 11.0 20.0 0.00 0.00 0.00 70 1013.7
20260903160046 73 276 9.0 18.0 0.00 0.00 0.00 68 1013.8
20260903154552 72 196 8.0 17.0 0.00 0.00 0.00 69 1014.0
20260903153040 74 261 9.0 20.0 0.00 0.00 0.00 66 1014.0
20260903151548 74 256 7.0 12.0 0.00 0.00 0.00 68 1013.6
20260903150044 74 225 10.0 23.0 0.00 0.00 0.00 66 1013.9
20260903144541 74 243 9.0 17.0 0.00 0.00 0.00 71 1014.1
20260903143037 73 184 8.0 15.0 0.00 0.00 0.00 76 1013.9
20260903141537 74 207 8.0 18.0 0.00 0.00 0.00 73 1014.1
20260903140049 74 219 10.0 17.0 0.00 0.00 0.00 73 1014.1
20260903134541 74 220 6.0 12.0 0.00 0.02 0.00 69 1014.0
20260903133035 74 259 7.0 16.0 0.00 0.02 0.00 68 1014.3
20260903131537 74 278 10.0 20.0 0.00 0.02 0.00 69 1014.3
20260903130034 74 245 10.0 19.0 0.00 0.02 0.00 69 1014.3
20260903124533 75 240 6.0 18.0 0.00 0.02 0.00 69 1014.3
20260903123035 75 175 8.0 15.0 0.00 0.02 0.00 71 1014.3
20260903121528 73 244 10.0 18.0 0.00 0.02 0.00 71 1014.4
20260903120022 73 215 8.0 19.0 0.00 0.02 0.00 73 1014.6
20260903114527 73 252 8.0 19.0 0.00 0.04 0.00 73 1014.6
20260903113023 72 241 6.0 15.0 0.00 0.04 0.00 76 1014.8
20260903111517 72 293 8.0 15.0 0.00 0.04 0.00 74 1014.7